GRACE-FO 2 (43477 NORAD) Tracking and Keplerian Element Data

This shows tracking and keplerian element data for the satellite.

Feedback or suggestion? Click here.




ElementValue
Catalog43477
NameGRACE-FO 2
Epoch Orbit37331
Epoch Day34.82356754
Epoch Year2025
RAAN266.9538
Inclination88.9715
Eccentricity0.0009087
Argument of Perigee247.1508
Mean Anonmoly112.8785
Mean Motion15.32981113
Decay Rate6.46E-05
L11 43477U 18047B 25034.82356754 .00006460 00000+0 20178-3 0 9995
L22 43477 88.9715 266.9538 0009087 247.1508 112.8785 15.32981113373318



Live tracking and technical data element details for GRACE-FO 2 (NORAD 43477). GRACE-FO 2 can be tracked NOW for your location showing map with azimuth and elevation plus other details from your city location.







IsCatalogInMostPopularTable: catalog: 43477, numindb: 370
Update: records affected: 1



GetName: 43477 GRACE-FO 2

Hit Count: updated at: Thu, 15 May 2025 09:53:58 GMT